Location: Tuttlingen
(47.9853°N, 8.8165°E)
Time: 04:00:23
(UTC+01:00)

ISS - Pass Details

Date: 12 February 2018
Orbit: 402 x 407 km, 51.6° (Epoch: 23 February)

Event Time Altitude Azimuth Distance (km) Brightness Sun altitude
Rises 18:32:08 0° 290° (WNW) 2,321 1.2 -8.9°
Reaches altitude 10° 18:34:22 10° 279° (W) 1,458 0.3 -9.3°
Maximum altitude 18:37:15 29° 217° (SW) 767 -1.9 -9.7°
Drops below altitude 10° 18:40:08 10° 154° (SSE) 1,452 -1.2 -10.2°
Sets 18:42:21 0° 143° (SE) 2,308 -0.3 -10.6°
